Location: *
(47.8307°S, 178.3954°E)
Time: 08:47:46
(UTC+00:00)

YAOGAN 1 - Pass Details

Date: 12 August 2024
Orbit: 610 x 612 km, 97.8° (Epoch: 18 September)

Event Time Altitude Azimuth Distance (km) Brightness Sun altitude
Rises 18:33:58 0° 18° (NNE) 2,875 6.5 -7.1°
Reaches altitude 10° 18:36:08 10° 19° (NNE) 1,979 5.6 -6.7°
Maximum altitude 18:40:26 81° 105° (ESE) 636 2.7 -6.0°
Drops below altitude 10° 18:44:49 10° 191° (SSW) 2,007 4.9 -5.3°
Sets 18:47:01 0° 192° (SSW) 2,921 5.7 -5.0°
